Tracking 19164 objects as of 21-May-2018
HD Live streaming from Space Station
objects crossing your sky now

GLOBALSTAR M006

Track GLOBALSTAR M006 now!
10-day predictions
GLOBALSTAR M006 is classified as:


NORAD ID: 25307
Int'l Code: 1998-023B
Perigee: 1,878.1 km
Apogee: 1,884.2 km
Inclination: 52.0 °
Period: 124.3 minutes
Semi major axis: 8252 km
RCS: 2.7065 m2 (large)
Launch date: April 24, 1998
Source: Globalstar (GLOB)
Launch site: AIR FORCE EASTERN TEST RANGE (AFETR)
aabbcc
Your satellite tracking list
Your tracking list is empty




NASA's NSSDC Master Catalog

Two Line Element Set (TLE):
1 25307U 98023B   18140.58270294 -.00000078  00000-0 -42569-4 0  9997
2 25307  51.9906 173.7741 0003686 128.0194  38.4320 11.58122677917475
Source of the keplerian elements: AFSPC